Weather History for Crestview, FL

Change the Weather History Date:

Sunday, November 11, 2012

  Actual Average Record
Temperature  
Mean Temperature 60 °F -  
Max Temperature 77 °F 70 °F 82 °F (1949)
Min Temperature 43 °F 44 °F 29 °F (1991)
Degree Days  
Heating Degree Days 5    
Growing Degree Days 10 (Base 50)    
Moisture  
Dew Point 49 °F    
Average Humidity 75    
Maximum Humidity 93    
Minimum Humidity 42    
Precipitation  
Precipitation 0.00 in - - ()
Sea Level Pressure  
Sea Level Pressure 30.26 in    
Wind  
Wind Speed 3 mph (ESE)    
Max Wind Speed 10 mph    
Max Gust Speed 20 mph    
Visibility 10 miles    
Events      
Averages and records for this station are not official NWS values.
T = Trace of Precipitation, MM = Missing Value Source: NWS Daily Summary

Daily Weather History Graph

Daily Weather History Graph

Search for Another Location

Airport:

Trip Planner

Search our weather history database for the weather conditions in past years. The results will help you decide how hot, cold, wet, or windy it might be!

Date:

Astronomy

Nov. 11, 2012 Rise Set
Actual Time 6:09 AM CST 4:50 PM CST
Civil Twilight 5:44 AM CST 5:15 PM CST
Nautical Twilight 5:15 AM CST 5:44 PM CST
Astronomical Twilight 4:46 AM CST 6:13 PM CST
Moon 3:31 AM CST (11/11) 3:07 PM CST (11/11)
Length of Visible Light 11h 31m
Length of Day
10h 40m
Waning Crescent, 7% of the Moon is Illuminated
Nov 11
Waning Crescent
Nov 13
New
Nov 20
First Quarter
Nov 28
Full
Dec 6
Last Quarter

Hourly Weather History & Observations

Time (CST) Temp. Windchill Dew Point Humidity Pressure Visibility Wind Dir Wind Speed Gust Speed Precip Events Conditions
12:53 AM 45.0 °F 43.5 °F 43.0 °F 93% 30.27 in 10.0 mi ENE 3.5 mph - N/A   Clear
1:53 AM 46.0 °F - 44.1 °F 93% 30.27 in 7.0 mi Calm Calm - N/A   Clear
2:53 AM 45.0 °F - 43.0 °F 93% 30.27 in 9.0 mi Calm Calm - N/A   Clear
3:53 AM 43.0 °F - 41.0 °F 93% 30.26 in 5.0 mi Calm Calm - N/A   Clear
4:53 AM 44.1 °F 42.5 °F 42.1 °F 93% 30.27 in 10.0 mi NE 3.5 mph - N/A   Clear
5:53 AM 45.0 °F 43.5 °F 42.1 °F 90% 30.30 in 10.0 mi NE 3.5 mph - N/A   Scattered Clouds
6:53 AM 48.9 °F - 45.0 °F 86% 30.30 in 10.0 mi Calm Calm - N/A   Clear
7:53 AM 57.9 °F - 51.1 °F 78% 30.31 in 10.0 mi Calm Calm - N/A   Partly Cloudy
8:53 AM 66.9 °F - 55.0 °F 66% 30.33 in 10.0 mi ESE 6.9 mph - N/A   Scattered Clouds
12:53 PM 77.0 °F - 53.1 °F 43% 30.26 in 10.0 mi SSE 10.4 mph 19.6 mph N/A   Partly Cloudy
1:53 PM 77.0 °F - 52.0 °F 42% 30.25 in 10.0 mi South 10.4 mph 16.1 mph N/A   Scattered Clouds
2:53 PM 75.9 °F - 52.0 °F 43% 30.25 in 10.0 mi ESE 10.4 mph - N/A   Clear
3:53 PM 73.9 °F - 51.1 °F 45% 30.24 in 10.0 mi SE 8.1 mph - N/A   Clear
4:53 PM 70.0 °F - 51.1 °F 51% 30.25 in 10.0 mi SSE 3.5 mph - N/A   Clear
5:53 PM 66.9 °F - 53.1 °F 61% 30.25 in 10.0 mi Calm Calm - N/A   Clear
6:53 PM 61.0 °F - 53.1 °F 75% 30.24 in 10.0 mi Calm Calm - N/A   Clear
7:53 PM 55.9 °F - 52.0 °F 87% 30.25 in 10.0 mi Calm Calm - N/A   Clear
9:53 PM 53.1 °F - 50.0 °F 89% 30.25 in 10.0 mi Calm Calm - N/A   Clear
10:53 PM 55.0 °F - 52.0 °F 89% 30.25 in 10.0 mi Calm Calm - N/A   Mostly Cloudy
11:53 PM 53.1 °F - 51.1 °F 93% 30.23 in 10.0 mi Calm Calm - N/A   Partly Cloudy